Weather History for Beverly, MA

Change the Weather History Date:

Wednesday, December 4, 2013

  Actual Average Record
Temperature  
Mean Temperature 35 °F -  
Max Temperature 42 °F 41 °F 69 °F (1998)
Min Temperature 28 °F 26 °F 12 °F (2002)
Degree Days  
Heating Degree Days 30    
Moisture  
Dew Point 25 °F    
Average Humidity 70    
Maximum Humidity 85    
Minimum Humidity 49    
Precipitation  
Precipitation 0.00 in - - ()
Sea Level Pressure  
Sea Level Pressure 30.08 in    
Wind  
Wind Speed 6 mph (WNW)    
Max Wind Speed 12 mph    
Max Gust Speed -    
Visibility 9 miles    
Events      
Averages and records for this station are not official NWS values.
T = Trace of Precipitation, MM = Missing Value Source: NWS Daily Summary

Daily Weather History Graph

Daily Weather History Graph

Search for Another Location

Airport:

Trip Planner

Search our weather history database for the weather conditions in past years. The results will help you decide how hot, cold, wet, or windy it might be!

Date:

Astronomy

Dec. 04, 2013 Rise Set
Actual Time 6:57 AM EST 4:10 PM EST
Civil Twilight 6:25 AM EST 4:42 PM EST
Nautical Twilight 5:50 AM EST 5:17 PM EST
Astronomical Twilight 5:16 AM EST 5:51 PM EST
Moon 8:21 AM EST (12/4) 6:18 PM EST (12/4)
Length of Visible Light 10h 16m
Length of Day
9h 13m
Waxing Crescent, 4% of the Moon is Illuminated
Dec 4
Waxing Crescent
Dec 9
First Quarter
Dec 17
Full
Dec 25
Last Quarter
Jan 1
New

Hourly Weather History & Observations

Time (EST) Temp. Windchill Dew Point Humidity Pressure Visibility Wind Dir Wind Speed Gust Speed Precip Events Conditions
12:53 AM 34.0 °F 28.0 °F 28.0 °F 79% 29.93 in 10.0 mi WNW 6.9 mph - N/A   Clear
1:53 AM 32.0 °F 26.4 °F 27.0 °F 82% 29.96 in 9.0 mi West 5.8 mph - N/A   Clear
2:53 AM 30.9 °F 25.2 °F 27.0 °F 85% 29.96 in 9.0 mi West 5.8 mph - N/A   Clear
3:53 AM 30.9 °F 25.2 °F 27.0 °F 85% 29.97 in 8.0 mi West 5.8 mph - N/A   Clear
4:53 AM 30.9 °F 25.2 °F 27.0 °F 85% 29.98 in 8.0 mi West 5.8 mph - N/A   Clear
5:53 AM 30.9 °F 26.2 °F 26.1 °F 82% 30.01 in 8.0 mi West 4.6 mph - N/A   Clear
6:53 AM 30.0 °F 23.2 °F 26.1 °F 85% 30.03 in 7.0 mi West 6.9 mph - N/A   Clear
7:53 AM 33.1 °F 27.7 °F 27.0 °F 78% 30.06 in 9.0 mi West 5.8 mph - N/A   Clear
8:53 AM 36.0 °F 29.0 °F 25.0 °F 64% 30.07 in 10.0 mi WNW 9.2 mph - N/A   Clear
9:53 AM 37.9 °F 30.5 °F 25.0 °F 60% 30.09 in 10.0 mi WNW 11.5 mph - N/A   Mostly Cloudy
10:53 AM 39.0 °F 31.8 °F 23.0 °F 53% 30.08 in 10.0 mi WNW 11.5 mph - N/A   Mostly Cloudy
11:53 AM 39.0 °F 32.8 °F 24.1 °F 55% 30.07 in 10.0 mi NW 9.2 mph - N/A   Mostly Cloudy
12:53 PM 41.0 °F 34.7 °F 24.1 °F 51% 30.07 in 10.0 mi NW 10.4 mph - N/A   Mostly Cloudy
1:53 PM 41.0 °F 34.7 °F 24.1 °F 51% 30.07 in 10.0 mi NW 10.4 mph - N/A   Overcast
2:53 PM 42.1 °F 38.4 °F 24.1 °F 49% 30.08 in 10.0 mi WNW 5.8 mph - N/A   Mostly Cloudy
3:53 PM 41.0 °F 37.1 °F 24.1 °F 51% 30.11 in 10.0 mi West 5.8 mph - N/A   Mostly Cloudy
4:53 PM 39.9 °F 36.7 °F 24.1 °F 53% 30.12 in 10.0 mi WNW 4.6 mph - N/A   Mostly Cloudy
5:53 PM 36.0 °F - 24.1 °F 62% 30.14 in 10.0 mi Calm Calm - N/A   Mostly Cloudy
6:53 PM 35.1 °F - 25.0 °F 67% 30.16 in 10.0 mi Calm Calm - N/A   Partly Cloudy
7:53 PM 30.9 °F - 24.1 °F 76% 30.16 in 10.0 mi Calm Calm - N/A   Clear
8:53 PM 30.0 °F - 25.0 °F 82% 30.17 in 10.0 mi Calm Calm - N/A   Clear
9:53 PM 28.9 °F - 24.1 °F 82% 30.18 in 9.0 mi Calm Calm - N/A   Clear
10:53 PM 28.9 °F - 24.1 °F 82% 30.18 in 8.0 mi Calm Calm - N/A   Clear
11:53 PM 28.0 °F - 23.0 °F 81% 30.19 in 9.0 mi Calm Calm - N/A   Clear